Hourly Data Report for December 20, 2019

EUREKA CLIMATE
NUNAVUT
Current Station Operator: ECCC - MSC

79°59'21.000" N
85°56'02.000" W
10.00 m
2401199
71613
NEK

Download Data

Hourly Data (December 2019)
Hourly Data Report for December 20, 2019
TIME
LST
Temp Definition
°C
Dew Point Definition
°C
Rel Hum Definition
%
Precip. Amount Definition
mm

Wind Dir Definition
10's deg

Wind Spd Definition
km/h
Visibility Definition
km
Stn Press Definition
kPa
Hmdx Definition


Wind Chill Definition


Weather Definition


00:00 -27.8 -30.6 77 0.0 12 7   101.11   -35 LegendNANA
01:00 -26.5 -29.2 78 0.0 4 9   101.13   -34 LegendNANA
02:00 -25.8 -28.6 77 0.0 13 7   101.19   -32 LegendNANA
03:00 -25.7 -28.3 79 0.0 14 5   101.20   -31 LegendNANA
04:00 -25.5 -28.0 79 0.0 11 7   101.24   -32 LegendNANA
05:00 -25.6 -28.1 80 0.0 10 8   101.26   -33 LegendNANA
06:00 -22.1 -24.2 83 0.0 8 14   101.27   -31 LegendNANA
07:00 -20.4 -22.3 85 0.0 11 23   101.28   -32 LegendNANA
08:00 -19.5 -21.4 85 0.0 13 33   101.26   -32 LegendNANA
09:00 -19.7 -21.6 84 0.0 12 27   101.31   -32 LegendNANA
10:00 -20.3 -22.4 83 0.0 12 32   101.32   -33 LegendNANA
11:00 -20.0 -22.2 82 0.0 13 24   101.37   -31 LegendNANA
12:00 -20.9 -23.0 83 0.0 12 27   101.40   -33 LegendNANA
13:00 -21.6 -23.6 84 0.0 13 32   101.42   -35 LegendNANA
14:00 -21.8 -23.8 84 0.0 12 34   101.46   -36 LegendNANA
15:00 -21.8 -23.7 85 0.0 13 25   101.55   -34 LegendNANA
16:00 -22.5 -24.4 84 0.2 13 16   101.61   -32 LegendNANA
17:00 -23.0 -25.0 83 0.0 12 17   101.64   -33 LegendNANA
18:00 -23.0 -25.1 83 0.0 13 18   101.67   -34 LegendNANA
19:00 -23.3 -25.4 83 0.2 15 18   101.68   -34 LegendNANA
20:00 -24.0 -26.2 82 0.0 11 21   101.70   -36 LegendNANA
21:00 -24.8 -27.1 81 0.0 12 23   101.71   -37 LegendNANA
22:00 -25.7 -28.1 80 0.0 12 25   101.71   -39 LegendNANA
23:00 -26.7 -29.3 79 0.0 12 26   101.72   -40 LegendNANA

Notes on Data Quality.

Legend

  • E = Estimated
  • M = Missing
  • NA = Not Available*
  • [empty] = Indicates an unobserved value
Date modified: